DW4063 Weather Reports


time (UTC)temp
F
wind
direction
speed
knots
gust
knots
rain 1hr
in
rain 24hr
in
rain mn
in
humidity
%
barometer
mb
20260504231517 68 314 4.3 12.2 0.00 0.01 0.01 56 999.6
20260504230029 71 191 0.0 0.9 0.01 0.01 0.01 68 997.7
20260504224534 72 138 0.0 5.2 0.01 0.01 0.01 59 998.2
20260504223025 72 197 1.7 7.0 0.01 0.01 0.01 59 998.8
20260504221526 74 197 2.6 12.2 0.01 0.01 0.01 54 998.9
20260504220024 77 215 0.9 10.4 0.00 0.00 0.00 48 998.8
20260504214535 79 190 3.5 10.4 0.00 0.00 0.00 36 998.6
20260504213029 79 200 0.9 7.0 0.00 0.00 0.00 38 998.6
20260504211518 79 177 2.6 10.4 0.00 0.00 0.00 35 999.0
20260504210026 79 193 2.6 7.8 0.00 0.00 0.00 34 999.2
20260504203006 81 197 4.3 13.0 0.00 0.00 0.00 34 999.4
20260504201524 81 306 2.6 8.7 0.00 0.00 0.00 35 999.5
20260504194520 78 255 1.7 8.7 0.00 0.00 0.00 38 1000.1
20260504193016 79 198 3.5 11.3 0.00 0.00 0.00 35 1000.3
20260504191513 80 223 3.5 10.4 0.00 0.00 0.00 36 1000.2
20260504190008 80 219 4.3 10.4 0.00 0.00 0.00 34 1000.3
20260504183026 79 323 1.7 10.4 0.00 0.00 0.00 30 1000.5
20260504181520 78 205 2.6 10.4 0.00 0.00 0.00 32 1000.5
20260504174516 77 189 2.6 10.4 0.00 0.00 0.00 35 1001.1
20260504171524 75 212 2.6 7.8 0.00 0.00 0.00 37 1001.5
20260504081526 46 16 0.0 0.0 0.00 0.07 0.00 86 1004.9
20260504050024 53 203 0.0 0.9 0.00 0.07 0.00 76 1006.6
20260504044523 53 203 0.0 0.9 0.00 0.07 0.07 75 1006.6
20260504043044 53 203 0.0 1.7 0.00 0.07 0.07 74 1006.6
20260504041534 54 215 0.0 1.7 0.00 0.07 0.07 74 1006.5
20260504040028 54 221 0.0 1.7 0.00 0.07 0.07 74 1006.5
20260504034526 54 192 0.0 1.7 0.00 0.07 0.07 74 1006.6
20260504033023 55 191 0.0 0.9 0.00 0.07 0.07 72 1006.8
20260504031521 55 191 0.0 0.0 0.00 0.07 0.07 69 1007.0
20260504030019 56 191 0.0 0.0 0.00 0.07 0.07 67 1007.0
20260504024515 57 191 0.0 2.6 0.00 0.07 0.07 66 1006.9
20260504023013 58 193 0.0 1.7 0.00 0.07 0.07 64 1007.0
20260504021511 59 193 0.0 1.7 0.00 0.07 0.07 62 1006.8
20260504020034 60 169 0.0 0.9 0.00 0.07 0.07 60 1006.7
20260504014522 61 213 0.0 1.7 0.00 0.07 0.07 58 1006.6
20260504013025 62 236 0.9 4.3 0.00 0.07 0.07 57 1006.5
20260504011515 63 205 0.9 2.6 0.00 0.07 0.07 55 1006.4
20260504010012 64 194 0.9 2.6 0.00 0.07 0.07 53 1006.3
20260504004522 65 221 0.9 2.6 0.00 0.07 0.07 50 1006.3
20260504003025 66 207 1.7 6.1 0.00 0.07 0.07 47 1006.4
20260504001532 67 215 1.7 6.1 0.00 0.07 0.07 47 1006.4
20260504000023 67 223 1.7 7.0 0.00 0.07 0.07 45 1006.4
20260503234520 68 200 1.7 8.7 0.00 0.07 0.07 45 1006.4
20260503233018 68 248 2.6 9.6 0.00 0.07 0.07 43 1006.4